| time (UTC) | temp C | wind direction | speed KPH | gust KPH | rain 1hr cm | rain 24hr cm | rain mn cm | humidity % | barometer mb |
| 20260903112100 | 25 | 199 | 0.0 | 0.0 | 0.00 | 0.00 | 0.00 | 100 | 1015.8 |
| 20260903111100 | 25 | 199 | 0.0 | 0.0 | 0.00 | 0.00 | 0.00 | 100 | 1015.7 |
| 20260903110559 | 25 | 199 | 0.0 | 0.0 | 0.00 | 0.00 | 0.00 | 100 | 1015.6 |
| 20260903110059 | 25 | 199 | 0.0 | 0.0 | 0.00 | 0.00 | 0.00 | 100 | 1015.6 |
| 20260903105558 | 25 | 199 | 0.0 | 0.0 | 0.00 | 0.00 | 0.00 | 100 | 1015.6 |
| 20260903105057 | 25 | 199 | 0.0 | 0.0 | 0.00 | 0.00 | 0.00 | 100 | 1015.4 |
| 20260903104558 | 25 | 199 | 0.0 | 0.0 | 0.00 | 0.00 | 0.00 | 100 | 1015.4 |
| 20260903104056 | 25 | 199 | 0.0 | 0.0 | 0.00 | 0.00 | 0.00 | 100 | 1015.3 |
| 20260903103556 | 25 | 199 | 0.0 | 0.0 | 0.00 | 0.00 | 0.00 | 100 | 1015.3 |
| 20260903103056 | 25 | 199 | 0.0 | 0.0 | 0.00 | 0.00 | 0.00 | 100 | 1015.3 |
| 20260903102557 | 25 | 199 | 0.0 | 0.0 | 0.00 | 0.00 | 0.00 | 100 | 1015.2 |
| 20260903102059 | 25 | 199 | 0.0 | 0.0 | 0.00 | 0.00 | 0.00 | 100 | 1015.3 |
| 20260903101556 | 25 | 199 | 0.0 | 0.0 | 0.00 | 0.00 | 0.00 | 100 | 1015.4 |
| 20260903101056 | 25 | 199 | 0.0 | 0.0 | 0.00 | 0.00 | 0.00 | 100 | 1015.3 |
| 20260903100555 | 25 | 199 | 0.0 | 0.0 | 0.00 | 0.00 | 0.00 | 100 | 1015.2 |
| 20260903100059 | 25 | 199 | 0.0 | 0.0 | 0.00 | 0.00 | 0.00 | 100 | 1015.1 |
| 20260903095555 | 25 | 199 | 0.0 | 0.0 | 0.00 | 0.00 | 0.00 | 100 | 1015.2 |
| 20260903095055 | 25 | 199 | 0.0 | 0.0 | 0.00 | 0.00 | 0.00 | 100 | 1015.1 |
| 20260903094601 | 25 | 199 | 0.0 | 0.0 | 0.00 | 0.00 | 0.00 | 100 | 1015.1 |
| 20260903094055 | 25 | 199 | 0.0 | 0.0 | 0.00 | 0.00 | 0.00 | 100 | 1015.0 |
| 20260903093555 | 25 | 199 | 0.0 | 0.0 | 0.00 | 0.00 | 0.00 | 100 | 1015.0 |
| 20260903093117 | 25 | 199 | 0.0 | 0.0 | 0.00 | 0.00 | 0.00 | 100 | 1014.9 |
| 20260903092553 | 25 | 199 | 0.0 | 0.0 | 0.00 | 0.00 | 0.00 | 100 | 1014.8 |
| 20260903092053 | 25 | 199 | 0.0 | 0.0 | 0.00 | 0.00 | 0.00 | 100 | 1014.8 |
| 20260903091553 | 25 | 199 | 0.0 | 0.0 | 0.00 | 0.00 | 0.00 | 100 | 1015.0 |
| 20260903091054 | 25 | 199 | 0.0 | 0.0 | 0.00 | 0.00 | 0.00 | 100 | 1015.0 |
| 20260903090552 | 25 | 199 | 0.0 | 0.0 | 0.00 | 0.00 | 0.00 | 100 | 1014.9 |
| 20260903090053 | 25 | 199 | 0.0 | 0.0 | 0.00 | 0.00 | 0.00 | 100 | 1014.9 |
| 20260903085552 | 25 | 199 | 0.0 | 0.0 | 0.00 | 0.00 | 0.00 | 100 | 1014.9 |
| 20260903085050 | 25 | 198 | 0.0 | 0.0 | 0.00 | 0.00 | 0.00 | 100 | 1014.9 |
| 20260903084550 | 25 | 198 | 0.0 | 0.0 | 0.00 | 0.00 | 0.00 | 100 | 1014.8 |
| 20260903084050 | 26 | 198 | 0.0 | 1.6 | 0.00 | 0.00 | 0.00 | 100 | 1014.9 |
| 20260903083549 | 26 | 198 | 0.0 | 1.6 | 0.00 | 0.00 | 0.00 | 100 | 1014.9 |
| 20260903083048 | 26 | 198 | 0.0 | 3.2 | 0.00 | 0.00 | 0.00 | 100 | 1014.9 |
| 20260903082552 | 26 | 198 | 0.0 | 4.8 | 0.00 | 0.00 | 0.00 | 100 | 1014.7 |
| 20260903082048 | 26 | 199 | 1.6 | 4.8 | 0.00 | 0.00 | 0.00 | 100 | 1014.7 |
| 20260903081549 | 26 | 189 | 0.0 | 0.0 | 0.00 | 0.00 | 0.00 | 100 | 1014.7 |
| 20260903081049 | 26 | 178 | 0.0 | 0.0 | 0.00 | 0.00 | 0.00 | 100 | 1014.7 |
| 20260903080548 | 26 | 178 | 0.0 | 4.8 | 0.00 | 0.00 | 0.00 | 100 | 1014.7 |
| 20260903080057 | 26 | 178 | 0.0 | 4.8 | 0.00 | 0.00 | 0.00 | 100 | 1014.7 |
| 20260903075546 | 26 | 184 | 0.0 | 4.8 | 0.00 | 0.00 | 0.00 | 100 | 1014.7 |
| 20260903075048 | 26 | 175 | 0.0 | 1.6 | 0.00 | 0.00 | 0.00 | 100 | 1014.8 |
| 20260903074601 | 26 | 174 | 0.0 | 0.0 | 0.00 | 0.00 | 0.00 | 100 | 1014.7 |
| 20260903074045 | 26 | 174 | 0.0 | 0.0 | 0.00 | 0.00 | 0.00 | 100 | 1014.7 |
| 20260903073547 | 26 | 173 | 0.0 | 3.2 | 0.00 | 0.00 | 0.00 | 100 | 1014.8 |
| 20260903073054 | 26 | 172 | 0.0 | 6.4 | 0.00 | 0.00 | 0.00 | 100 | 1014.7 |
| 20260903072544 | 26 | 176 | 1.6 | 6.4 | 0.00 | 0.00 | 0.00 | 100 | 1014.8 |
| 20260903072044 | 26 | 177 | 1.6 | 6.4 | 0.00 | 0.00 | 0.00 | 100 | 1014.8 |
| 20260903071544 | 26 | 180 | 3.2 | 6.4 | 0.00 | 0.00 | 0.00 | 100 | 1014.9 |
| 20260903071042 | 26 | 180 | 1.6 | 6.4 | 0.00 | 0.00 | 0.00 | 100 | 1014.9 |
| 20260903070546 | 26 | 189 | 1.6 | 6.4 | 0.00 | 0.00 | 0.00 | 100 | 1014.8 |
| 20260903070042 | 27 | 196 | 1.6 | 6.4 | 0.00 | 0.00 | 0.00 | 100 | 1014.9 |
| 20260903065541 | 27 | 166 | 3.2 | 9.7 | 0.00 | 0.00 | 0.00 | 100 | 1015.0 |
| 20260903065042 | 27 | 157 | 1.6 | 9.7 | 0.00 | 0.00 | 0.00 | 100 | 1015.0 |
| 20260903064543 | 27 | 148 | 3.2 | 9.7 | 0.00 | 0.00 | 0.00 | 100 | 1015.0 |
| 20260903064041 | 27 | 138 | 1.6 | 11.3 | 0.00 | 0.00 | 0.00 | 100 | 1014.9 |
| 20260903063540 | 27 | 146 | 1.6 | 12.9 | 0.00 | 0.00 | 0.00 | 100 | 1014.8 |
| 20260903063040 | 27 | 108 | 3.2 | 11.3 | 0.00 | 0.00 | 0.00 | 100 | 1014.9 |
| 20260903062537 | 27 | 145 | 1.6 | 6.4 | 0.00 | 0.00 | 0.00 | 100 | 1014.9 |
| 20260903062038 | 27 | 90 | 1.6 | 11.3 | 0.00 | 0.00 | 0.00 | 100 | 1015.1 |
| 20260903061543 | 27 | 93 | 0.0 | 4.8 | 0.00 | 0.00 | 0.00 | 100 | 1015.2 |
| 20260903061036 | 27 | 92 | 0.0 | 4.8 | 0.00 | 0.00 | 0.00 | 100 | 1015.1 |
| 20260903060540 | 27 | 121 | 0.0 | 4.8 | 0.00 | 0.00 | 0.00 | 100 | 1015.2 |
| 20260903060036 | 27 | 125 | 1.6 | 4.8 | 0.00 | 0.00 | 0.00 | 100 | 1015.0 |
| 20260903055536 | 27 | 126 | 1.6 | 4.8 | 0.00 | 0.00 | 0.00 | 100 | 1015.1 |
| 20260903055035 | 27 | 126 | 0.0 | 4.8 | 0.00 | 0.00 | 0.00 | 100 | 1015.4 |
| 20260903054533 | 27 | 139 | 0.0 | 0.0 | 0.00 | 0.00 | 0.00 | 100 | 1015.5 |
| 20260903054035 | 27 | 142 | 0.0 | 4.8 | 0.00 | 0.00 | 0.00 | 100 | 1015.7 |
| 20260903053532 | 27 | 142 | 1.6 | 8.0 | 0.00 | 0.00 | 0.00 | 100 | 1015.7 |
| 20260903053033 | 27 | 143 | 1.6 | 8.0 | 0.00 | 0.00 | 0.00 | 100 | 1015.7 |
| 20260903052534 | 27 | 137 | 3.2 | 8.0 | 0.00 | 0.00 | 0.00 | 100 | 1015.7 |
| 20260903052031 | 27 | 142 | 1.6 | 4.8 | 0.00 | 0.00 | 0.00 | 100 | 1015.8 |
| 20260903051530 | 27 | 143 | 0.0 | 0.0 | 0.00 | 0.00 | 0.00 | 100 | 1016.0 |
| 20260903051030 | 27 | 143 | 0.0 | 0.0 | 0.00 | 0.00 | 0.00 | 100 | 1016.1 |
| 20260903050529 | 27 | 143 | 0.0 | 0.0 | 0.00 | 0.00 | 0.00 | 100 | 1016.1 |
| 20260903050032 | 27 | 143 | 0.0 | 0.0 | 0.00 | 0.00 | 0.00 | 100 | 1016.0 |
| 20260903045529 | 27 | 143 | 0.0 | 3.2 | 0.00 | 0.00 | 0.00 | 100 | 1016.1 |
| 20260903045028 | 27 | 143 | 0.0 | 0.0 | 0.00 | 0.00 | 0.00 | 100 | 1016.1 |
| 20260903044527 | 27 | 143 | 0.0 | 0.0 | 0.00 | 0.00 | 0.00 | 100 | 1016.1 |
| 20260903044027 | 27 | 143 | 0.0 | 3.2 | 0.00 | 0.00 | 0.00 | 100 | 1016.2 |
| 20260903043533 | 27 | 143 | 0.0 | 4.8 | 0.00 | 0.00 | 0.00 | 100 | 1016.4 |
| 20260903043026 | 27 | 143 | 1.6 | 4.8 | 0.00 | 0.00 | 0.00 | 100 | 1016.5 |
| 20260903042525 | 27 | 143 | 0.0 | 4.8 | 0.00 | 0.00 | 0.00 | 100 | 1016.6 |
| 20260903042025 | 27 | 143 | 0.0 | 1.6 | 0.00 | 0.00 | 0.00 | 100 | 1016.7 |
| 20260903041531 | 27 | 143 | 0.0 | 4.8 | 0.00 | 0.00 | 0.00 | 100 | 1016.7 |
| 20260903041025 | 27 | 143 | 1.6 | 4.8 | 0.00 | 0.00 | 0.00 | 100 | 1016.7 |
| 20260903040524 | 27 | 142 | 0.0 | 6.4 | 0.00 | 0.00 | 0.00 | 100 | 1016.6 |
| 20260903040025 | 27 | 142 | 1.6 | 8.0 | 0.00 | 0.00 | 0.00 | 100 | 1016.7 |
| 20260903035523 | 27 | 142 | 0.0 | 8.0 | 0.00 | 0.00 | 0.00 | 100 | 1016.8 |
| 20260903035022 | 27 | 167 | 0.0 | 6.4 | 0.00 | 0.00 | 0.00 | 100 | 1016.9 |
| 20260903034526 | 27 | 169 | 3.2 | 6.4 | 0.00 | 0.00 | 0.00 | 100 | 1016.9 |
| 20260903034021 | 27 | 147 | 1.6 | 8.0 | 0.00 | 0.00 | 0.00 | 100 | 1017.1 |
| 20260903033521 | 27 | 146 | 3.2 | 8.0 | 0.00 | 0.00 | 0.00 | 100 | 1016.9 |
| 20260903033036 | 27 | 144 | 3.2 | 8.0 | 0.00 | 0.00 | 0.00 | 100 | 1017.0 |
| 20260903032524 | 27 | 103 | 1.6 | 6.4 | 0.00 | 0.00 | 0.00 | 100 | 1017.0 |
| 20260903032022 | 27 | 131 | 0.0 | 3.2 | 0.00 | 0.00 | 0.00 | 100 | 1016.9 |
| 20260903031521 | 27 | 130 | 0.0 | 4.8 | 0.00 | 0.00 | 0.00 | 100 | 1017.0 |
| 20260903031023 | 27 | 130 | 1.6 | 4.8 | 0.00 | 0.00 | 0.00 | 100 | 1017.0 |
| 20260903030521 | 27 | 116 | 0.0 | 6.4 | 0.00 | 0.00 | 0.00 | 100 | 1016.8 |
| 20260903030021 | 27 | 116 | 0.0 | 6.4 | 0.00 | 0.00 | 0.00 | 100 | 1016.9 |
| 20260903025523 | 27 | 117 | 1.6 | 6.4 | 0.00 | 0.00 | 0.00 | 100 | 1016.8 |
| 20260903025022 | 27 | 117 | 0.0 | 4.8 | 0.00 | 0.00 | 0.00 | 100 | 1016.8 |
| 20260903024520 | 27 | 127 | 1.6 | 6.4 | 0.00 | 0.00 | 0.00 | 100 | 1016.8 |
| 20260903024019 | 27 | 115 | 1.6 | 6.4 | 0.00 | 0.00 | 0.00 | 100 | 1016.6 |
| 20260903023523 | 27 | 119 | 1.6 | 9.7 | 0.00 | 0.00 | 0.00 | 100 | 1016.7 |
| 20260903023020 | 27 | 115 | 1.6 | 9.7 | 0.00 | 0.00 | 0.00 | 100 | 1016.7 |
| 20260903022520 | 27 | 111 | 1.6 | 6.4 | 0.00 | 0.00 | 0.00 | 100 | 1016.7 |
| 20260903022018 | 27 | 118 | 3.2 | 6.4 | 0.00 | 0.00 | 0.00 | 100 | 1016.6 |
| 20260903021519 | 27 | 116 | 1.6 | 6.4 | 0.00 | 0.00 | 0.00 | 100 | 1016.6 |
| 20260903021019 | 27 | 103 | 3.2 | 9.7 | 0.00 | 0.00 | 0.00 | 100 | 1016.6 |
| 20260903020518 | 27 | 103 | 1.6 | 9.7 | 0.00 | 0.00 | 0.00 | 100 | 1016.6 |
| 20260903020018 | 27 | 145 | 1.6 | 6.4 | 0.00 | 0.00 | 0.00 | 100 | 1016.6 |
| 20260903015519 | 27 | 117 | 1.6 | 6.4 | 0.00 | 0.00 | 0.00 | 100 | 1016.7 |
| 20260903015017 | 27 | 117 | 1.6 | 6.4 | 0.00 | 0.00 | 0.00 | 100 | 1016.7 |
| 20260903014518 | 27 | 113 | 1.6 | 6.4 | 0.00 | 0.00 | 0.00 | 100 | 1016.6 |
| 20260903014022 | 27 | 120 | 1.6 | 9.7 | 0.00 | 0.00 | 0.00 | 100 | 1016.6 |
| 20260903013517 | 27 | 110 | 1.6 | 11.3 | 0.00 | 0.00 | 0.00 | 100 | 1016.7 |
| 20260903013022 | 27 | 82 | 3.2 | 11.3 | 0.00 | 0.00 | 0.00 | 100 | 1016.6 |
| 20260903012517 | 27 | 130 | 1.6 | 9.7 | 0.00 | 0.00 | 0.00 | 100 | 1016.5 |
| 20260903012017 | 27 | 128 | 3.2 | 9.7 | 0.00 | 0.00 | 0.00 | 100 | 1016.4 |
| 20260903011517 | 27 | 134 | 3.2 | 11.3 | 0.00 | 0.00 | 0.00 | 100 | 1016.5 |
| 20260903011017 | 27 | 124 | 3.2 | 11.3 | 0.00 | 0.00 | 0.00 | 100 | 1016.4 |
| 20260903010516 | 27 | 144 | 0.0 | 11.3 | 0.00 | 0.00 | 0.00 | 100 | 1016.3 |
| 20260903010016 | 27 | 127 | 1.6 | 12.9 | 0.00 | 0.00 | 0.00 | 100 | 1016.1 |
| 20260903005516 | 27 | 110 | 3.2 | 11.3 | 0.00 | 0.00 | 0.00 | 100 | 1016.1 |
| 20260903005015 | 27 | 119 | 3.2 | 9.7 | 0.00 | 0.00 | 0.00 | 100 | 1016.0 |
| 20260903004530 | 27 | 118 | 1.6 | 8.0 | 0.00 | 0.00 | 0.00 | 100 | 1016.0 |
| 20260903004018 | 27 | 104 | 1.6 | 9.7 | 0.00 | 0.00 | 0.00 | 100 | 1016.0 |
| 20260903003516 | 27 | 97 | 1.6 | 4.8 | 0.00 | 0.00 | 0.00 | 100 | 1016.0 |
| 20260903003016 | 27 | 110 | 0.0 | 11.3 | 0.00 | 0.00 | 0.00 | 100 | 1016.0 |
| 20260903002515 | 27 | 86 | 1.6 | 11.3 | 0.00 | 0.00 | 0.00 | 100 | 1015.8 |
| 20260903002015 | 27 | 83 | 1.6 | 6.4 | 0.00 | 0.00 | 0.00 | 100 | 1015.7 |
| 20260903001514 | 27 | 115 | 1.6 | 11.3 | 0.00 | 0.00 | 0.00 | 100 | 1015.6 |
| 20260903001014 | 27 | 103 | 1.6 | 11.3 | 0.00 | 0.00 | 0.00 | 100 | 1015.7 |
| 20260903000514 | 27 | 113 | 1.6 | 9.7 | 0.00 | 0.00 | 0.00 | 100 | 1015.6 |
| 20260903000016 | 27 | 101 | 0.0 | 9.7 | 0.00 | 0.00 | 0.00 | 100 | 1015.6 |
| 20260902235514 | 27 | 132 | 1.6 | 11.3 | 0.00 | 0.00 | 0.00 | 100 | 1015.6 |
| 20260902235013 | 27 | 98 | 3.2 | 14.5 | 0.00 | 0.00 | 0.00 | 100 | 1015.6 |
| 20260902234513 | 27 | 124 | 4.8 | 14.5 | 0.00 | 0.00 | 0.00 | 100 | 1015.5 |
| 20260902234013 | 27 | 107 | 3.2 | 11.3 | 0.00 | 0.00 | 0.00 | 100 | 1015.4 |
| 20260902233513 | 27 | 119 | 0.0 | 12.9 | 0.00 | 0.00 | 0.00 | 100 | 1015.4 |
| 20260902233013 | 27 | 136 | 6.4 | 12.9 | 0.00 | 0.00 | 0.00 | 100 | 1015.5 |
| 20260902232514 | 27 | 161 | 4.8 | 12.9 | 0.00 | 0.00 | 0.00 | 100 | 1015.5 |
| 20260902232012 | 27 | 93 | 3.2 | 12.9 | 0.00 | 0.00 | 0.00 | 100 | 1015.4 |
| 20260902231514 | 27 | 106 | 1.6 | 9.7 | 0.00 | 0.00 | 0.00 | 100 | 1015.4 |
| 20260902231018 | 27 | 111 | 3.2 | 9.7 | 0.00 | 0.00 | 0.00 | 100 | 1015.4 |
| 20260902230517 | 27 | 131 | 3.2 | 14.5 | 0.00 | 0.00 | 0.00 | 100 | 1015.3 |
| 20260902230011 | 28 | 149 | 4.8 | 14.5 | 0.00 | 0.00 | 0.00 | 100 | 1015.3 |
| 20260902225512 | 27 | 129 | 3.2 | 16.1 | 0.00 | 0.00 | 0.00 | 100 | 1015.4 |
| 20260902225012 | 27 | 96 | 6.4 | 16.1 | 0.00 | 0.00 | 0.00 | 100 | 1015.3 |
| 20260902224511 | 27 | 139 | 6.4 | 11.3 | 0.00 | 0.00 | 0.00 | 100 | 1015.3 |
| 20260902224010 | 28 | 135 | 3.2 | 8.0 | 0.00 | 0.00 | 0.00 | 100 | 1015.3 |
| 20260902223518 | 28 | 128 | 3.2 | 9.7 | 0.00 | 0.00 | 0.00 | 100 | 1015.3 |
| 20260902223010 | 28 | 101 | 1.6 | 12.9 | 0.00 | 0.00 | 0.00 | 100 | 1015.3 |
| 20260902222511 | 28 | 67 | 4.8 | 12.9 | 0.00 | 0.00 | 0.00 | 100 | 1015.4 |
| 20260902222010 | 28 | 111 | 3.2 | 9.7 | 0.00 | 0.00 | 0.00 | 100 | 1015.3 |
| 20260902221509 | 28 | 111 | 3.2 | 6.4 | 0.00 | 0.00 | 0.00 | 100 | 1015.3 |
| 20260902221010 | 28 | 116 | 0.0 | 4.8 | 0.00 | 0.00 | 0.00 | 100 | 1015.3 |
| 20260902220509 | 28 | 113 | 0.0 | 9.7 | 0.00 | 0.00 | 0.00 | 100 | 1015.4 |
| 20260902220009 | 28 | 111 | 0.0 | 9.7 | 0.00 | 0.00 | 0.00 | 100 | 1015.4 |
| 20260902215508 | 28 | 117 | 1.6 | 6.4 | 0.00 | 0.00 | 0.00 | 100 | 1015.5 |
| 20260902215008 | 28 | 107 | 1.6 | 8.0 | 0.00 | 0.00 | 0.00 | 100 | 1015.5 |
| 20260902214509 | 28 | 109 | 1.6 | 9.7 | 0.00 | 0.00 | 0.00 | 100 | 1015.5 |
| 20260902214008 | 28 | 118 | 3.2 | 9.7 | 0.00 | 0.00 | 0.00 | 100 | 1015.5 |
| 20260902213508 | 28 | 130 | 1.6 | 11.3 | 0.00 | 0.00 | 0.00 | 100 | 1015.5 |
| 20260902213022 | 28 | 119 | 3.2 | 11.3 | 0.00 | 0.00 | 0.00 | 100 | 1015.5 |
| 20260902212508 | 28 | 110 | 3.2 | 11.3 | 0.00 | 0.00 | 0.00 | 100 | 1015.5 |
| 20260902212007 | 28 | 152 | 4.8 | 11.3 | 0.00 | 0.00 | 0.00 | 100 | 1015.4 |
| 20260902211507 | 28 | 146 | 3.2 | 11.3 | 0.00 | 0.00 | 0.00 | 100 | 1015.4 |
| 20260902211006 | 28 | 124 | 3.2 | 12.9 | 0.00 | 0.00 | 0.00 | 100 | 1015.3 |
| 20260902210506 | 28 | 117 | 6.4 | 12.9 | 0.00 | 0.00 | 0.00 | 100 | 1015.4 |
| 20260902210014 | 28 | 109 | 3.2 | 11.3 | 0.00 | 0.00 | 0.00 | 100 | 1015.4 |
| 20260902205505 | 28 | 148 | 1.6 | 12.9 | 0.00 | 0.00 | 0.00 | 100 | 1015.5 |
| 20260902205007 | 28 | 153 | 4.8 | 11.3 | 0.00 | 0.00 | 0.00 | 100 | 1015.5 |
| 20260902204505 | 28 | 122 | 3.2 | 12.9 | 0.00 | 0.00 | 0.00 | 100 | 1015.7 |
| 20260902204005 | 29 | 106 | 3.2 | 12.9 | 0.00 | 0.00 | 0.00 | 100 | 1015.7 |
| 20260902203505 | 29 | 121 | 6.4 | 12.9 | 0.00 | 0.00 | 0.00 | 100 | 1015.7 |
| 20260902203005 | 29 | 153 | 6.4 | 12.9 | 0.00 | 0.00 | 0.00 | 100 | 1015.7 |
| 20260902202504 | 29 | 116 | 4.8 | 14.5 | 0.00 | 0.00 | 0.00 | 100 | 1015.6 |
| 20260902202003 | 29 | 136 | 3.2 | 14.5 | 0.00 | 0.00 | 0.00 | 100 | 1015.6 |
| 20260902201504 | 29 | 89 | 3.2 | 12.9 | 0.00 | 0.00 | 0.00 | 100 | 1015.6 |
| 20260902201003 | 29 | 113 | 3.2 | 12.9 | 0.00 | 0.00 | 0.00 | 100 | 1015.5 |
| 20260902200503 | 29 | 90 | 4.8 | 14.5 | 0.00 | 0.00 | 0.00 | 100 | 1015.6 |
| 20260902200006 | 29 | 76 | 3.2 | 17.7 | 0.00 | 0.00 | 0.00 | 100 | 1015.7 |
| 20260902195502 | 29 | 111 | 4.8 | 17.7 | 0.00 | 0.00 | 0.00 | 100 | 1015.7 |
| 20260902195001 | 28 | 82 | 4.8 | 12.9 | 0.00 | 0.00 | 0.00 | 100 | 1015.8 |
| 20260902194502 | 28 | 131 | 1.6 | 14.5 | 0.00 | 0.00 | 0.00 | 100 | 1015.9 |
| 20260902194007 | 28 | 128 | 3.2 | 16.1 | 0.00 | 0.00 | 0.00 | 100 | 1015.9 |
| 20260902193502 | 28 | 138 | 4.8 | 16.1 | 0.00 | 0.00 | 0.00 | 100 | 1016.0 |
| 20260902193101 | 29 | 107 | 4.8 | 11.3 | 0.00 | 0.00 | 0.00 | 100 | 1016.0 |
| 20260902192500 | 29 | 135 | 3.2 | 12.9 | 0.00 | 0.00 | 0.00 | 100 | 1016.1 |
| 20260902192059 | 29 | 151 | 6.4 | 12.9 | 0.00 | 0.00 | 0.00 | 100 | 1016.2 |
| 20260902191600 | 29 | 126 | 3.2 | 14.5 | 0.00 | 0.00 | 0.00 | 100 | 1016.3 |
| 20260902191059 | 29 | 132 | 6.4 | 14.5 | 0.00 | 0.00 | 0.00 | 100 | 1016.3 |
| 20260902190559 | 30 | 113 | 3.2 | 12.9 | 0.00 | 0.00 | 0.00 | 100 | 1016.3 |
| 20260902190058 | 29 | 125 | 4.8 | 14.5 | 0.00 | 0.00 | 0.00 | 100 | 1016.3 |
| 20260902185557 | 29 | 128 | 4.8 | 16.1 | 0.00 | 0.00 | 0.00 | 100 | 1016.4 |
| 20260902185057 | 29 | 169 | 6.4 | 16.1 | 0.00 | 0.00 | 0.00 | 100 | 1016.4 |
| 20260902184601 | 29 | 131 | 1.6 | 11.3 | 0.00 | 0.00 | 0.00 | 100 | 1016.4 |
| 20260902184057 | 29 | 153 | 3.2 | 11.3 | 0.00 | 0.00 | 0.00 | 100 | 1016.4 |
| 20260902183557 | 28 | 132 | 3.2 | 9.7 | 0.00 | 0.00 | 0.00 | 100 | 1016.5 |
| 20260902183110 | 28 | 119 | 1.6 | 12.9 | 0.00 | 0.00 | 0.00 | 100 | 1016.5 |
| 20260902182556 | 28 | 113 | 1.6 | 12.9 | 0.00 | 0.00 | 0.00 | 100 | 1016.5 |
| 20260902182055 | 28 | 116 | 3.2 | 14.5 | 0.00 | 0.00 | 0.00 | 100 | 1016.6 |
| 20260902181555 | 28 | 112 | 4.8 | 14.5 | 0.00 | 0.00 | 0.00 | 100 | 1016.7 |
| 20260902181055 | 28 | 108 | 1.6 | 12.9 | 0.00 | 0.00 | 0.00 | 100 | 1016.7 |
| 20260902180554 | 28 | 130 | 4.8 | 14.5 | 0.00 | 0.00 | 0.00 | 100 | 1016.7 |
| 20260902180055 | 27 | 53 | 4.8 | 14.5 | 0.00 | 0.00 | 0.00 | 100 | 1016.8 |
| 20260902175557 | 28 | 90 | 3.2 | 12.9 | 0.00 | 0.00 | 0.00 | 100 | 1016.8 |
| 20260902175054 | 28 | 130 | 3.2 | 11.3 | 0.00 | 0.00 | 0.00 | 100 | 1016.8 |
| 20260902174604 | 28 | 107 | 0.0 | 8.0 | 0.00 | 0.00 | 0.00 | 100 | 1016.8 |
| 20260902174058 | 28 | 112 | 1.6 | 6.4 | 0.00 | 0.00 | 0.00 | 100 | 1016.8 |
| 20260902173554 | 28 | 113 | 1.6 | 9.7 | 0.00 | 0.00 | 0.00 | 100 | 1016.9 |
| 20260902173053 | 28 | 119 | 1.6 | 9.7 | 0.00 | 0.00 | 0.00 | 100 | 1016.9 |
| 20260902172554 | 28 | 124 | 1.6 | 9.7 | 0.00 | 0.00 | 0.00 | 100 | 1017.0 |
| 20260902172053 | 28 | 123 | 0.0 | 6.4 | 0.00 | 0.00 | 0.00 | 100 | 1017.0 |
| 20260902171601 | 28 | 79 | 0.0 | 6.4 | 0.00 | 0.00 | 0.00 | 100 | 1017.1 |
| 20260902171054 | 28 | 118 | 1.6 | 6.4 | 0.00 | 0.00 | 0.00 | 100 | 1017.1 |
| 20260902170552 | 28 | 109 | 0.0 | 6.4 | 0.00 | 0.00 | 0.00 | 100 | 1017.2 |
| 20260902170052 | 28 | 117 | 1.6 | 6.4 | 0.00 | 0.00 | 0.00 | 100 | 1017.2 |
| 20260902165552 | 28 | 115 | 1.6 | 6.4 | 0.00 | 0.00 | 0.00 | 100 | 1017.3 |
| 20260902165052 | 28 | 88 | 0.0 | 4.8 | 0.00 | 0.00 | 0.00 | 100 | 1017.3 |
| 20260902164552 | 28 | 74 | 0.0 | 6.4 | 0.00 | 0.00 | 0.00 | 100 | 1017.3 |
| 20260902164051 | 28 | 42 | 0.0 | 6.4 | 0.00 | 0.00 | 0.00 | 100 | 1017.3 |
| 20260902163551 | 28 | 59 | 0.0 | 4.8 | 0.00 | 0.00 | 0.00 | 100 | 1017.5 |
| 20260902163105 | 28 | 80 | 0.0 | 8.0 | 0.00 | 0.00 | 0.00 | 100 | 1017.5 |
| 20260902162553 | 29 | 63 | 1.6 | 9.7 | 0.00 | 0.00 | 0.00 | 100 | 1017.7 |
| 20260902162050 | 29 | 355 | 3.2 | 9.7 | 0.00 | 0.00 | 0.00 | 100 | 1017.8 |
| 20260902161550 | 29 | 15 | 1.6 | 8.0 | 0.00 | 0.00 | 0.00 | 100 | 1017.9 |
| 20260902161052 | 29 | 40 | 1.6 | 8.0 | 0.00 | 0.00 | 0.00 | 100 | 1017.7 |
| 20260902160549 | 29 | 152 | 1.6 | 8.0 | 0.00 | 0.00 | 0.00 | 100 | 1017.8 |
| 20260902160049 | 29 | 97 | 1.6 | 8.0 | 0.00 | 0.00 | 0.00 | 100 | 1017.7 |
| 20260902155549 | 29 | 5 | 1.6 | 8.0 | 0.00 | 0.00 | 0.00 | 100 | 1017.7 |
| 20260902155049 | 29 | 117 | 0.0 | 6.4 | 0.00 | 0.00 | 0.00 | 100 | 1017.9 |
| 20260902154549 | 29 | 94 | 0.0 | 6.4 | 0.00 | 0.00 | 0.00 | 100 | 1018.0 |
| 20260902154048 | 29 | 18 | 0.0 | 4.8 | 0.00 | 0.00 | 0.00 | 100 | 1018.0 |
| 20260902153547 | 29 | 25 | 1.6 | 6.4 | 0.00 | 0.00 | 0.00 | 100 | 1018.1 |
| 20260902153045 | 29 | 26 | 1.6 | 4.8 | 0.00 | 0.00 | 0.00 | 100 | 1018.1 |
| 20260902152543 | 29 | 113 | 0.0 | 3.2 | 0.00 | 0.00 | 0.00 | 100 | 1018.1 |
| 20260902152041 | 28 | 114 | 0.0 | 3.2 | 0.00 | 0.00 | 0.00 | 100 | 1018.1 |
| 20260902151551 | 28 | 71 | 0.0 | 3.2 | 0.00 | 0.00 | 0.00 | 100 | 1017.9 |
| 20260902151044 | 28 | 346 | 0.0 | 3.2 | 0.00 | 0.00 | 0.00 | 100 | 1017.7 |
| 20260902150541 | 28 | 346 | 0.0 | 3.2 | 0.00 | 0.00 | 0.00 | 100 | 1017.6 |
| 20260902150043 | 28 | 340 | 0.0 | 6.4 | 0.00 | 0.00 | 0.00 | 100 | 1017.6 |
| 20260902145540 | 28 | 355 | 0.0 | 6.4 | 0.00 | 0.00 | 0.00 | 100 | 1017.7 |
| 20260902145038 | 28 | 360 | 1.6 | 6.4 | 0.00 | 0.00 | 0.00 | 100 | 1017.8 |
| 20260902144543 | 28 | 5 | 1.6 | 6.4 | 0.00 | 0.00 | 0.00 | 100 | 1017.9 |
| 20260902144037 | 28 | 341 | 1.6 | 6.4 | 0.00 | 0.00 | 0.00 | 100 | 1017.8 |
| 20260902143540 | 28 | 5 | 0.0 | 4.8 | 0.00 | 0.00 | 0.00 | 100 | 1017.8 |
| 20260902143037 | 28 | 9 | 0.0 | 4.8 | 0.00 | 0.00 | 0.00 | 100 | 1017.6 |
| 20260902142537 | 28 | 355 | 0.0 | 4.8 | 0.00 | 0.00 | 0.00 | 100 | 1017.7 |
| 20260902142035 | 28 | 360 | 0.0 | 4.8 | 0.00 | 0.00 | 0.00 | 100 | 1017.6 |
| 20260902141538 | 27 | 355 | 0.0 | 6.4 | 0.00 | 0.00 | 0.00 | 100 | 1017.7 |
| 20260902141036 | 27 | 347 | 1.6 | 6.4 | 0.00 | 0.00 | 0.00 | 100 | 1017.7 |
| 20260902140536 | 27 | 5 | 3.2 | 6.4 | 0.00 | 0.00 | 0.00 | 100 | 1017.6 |
| 20260902140038 | 27 | 9 | 3.2 | 6.4 | 0.00 | 0.00 | 0.00 | 100 | 1017.8 |
| 20260902135535 | 28 | 328 | 0.0 | 3.2 | 0.00 | 0.00 | 0.00 | 100 | 1017.7 |
| 20260902135035 | 28 | 327 | 0.0 | 3.2 | 0.00 | 0.00 | 0.00 | 100 | 1017.6 |
| 20260902134534 | 28 | 313 | 0.0 | 3.2 | 0.00 | 0.00 | 0.00 | 100 | 1017.6 |
| 20260902134035 | 28 | 314 | 0.0 | 3.2 | 0.00 | 0.00 | 0.00 | 100 | 1017.5 |
| 20260902133536 | 28 | 336 | 0.0 | 4.8 | 0.00 | 0.00 | 0.00 | 100 | 1017.5 |
| 20260902133034 | 28 | 336 | 0.0 | 4.8 | 0.00 | 0.00 | 0.00 | 100 | 1017.4 |
| 20260902132533 | 28 | 344 | 0.0 | 4.8 | 0.00 | 0.00 | 0.00 | 100 | 1017.6 |
| 20260902132033 | 28 | 346 | 1.6 | 6.4 | 0.00 | 0.00 | 0.00 | 100 | 1017.5 |
| 20260902131533 | 28 | 348 | 0.0 | 6.4 | 0.00 | 0.00 | 0.00 | 100 | 1017.6 |
| 20260902131032 | 28 | 317 | 0.0 | 6.4 | 0.00 | 0.00 | 0.00 | 100 | 1017.5 |
| 20260902130532 | 28 | 345 | 1.6 | 6.4 | 0.00 | 0.00 | 0.00 | 100 | 1017.5 |
| 20260902130032 | 27 | 277 | 0.0 | 0.0 | 0.00 | 0.00 | 0.00 | 100 | 1017.5 |
| 20260902125529 | 27 | 290 | 0.0 | 0.0 | 0.00 | 0.00 | 0.00 | 100 | 1017.4 |
| 20260902125033 | 27 | 302 | 0.0 | 0.0 | 0.00 | 0.00 | 0.00 | 100 | 1017.4 |
| 20260902124527 | 27 | 299 | 0.0 | 0.0 | 0.00 | 0.00 | 0.00 | 100 | 1017.4 |
| 20260902124027 | 27 | 313 | 0.0 | 0.0 | 0.00 | 0.00 | 0.00 | 100 | 1017.3 |
| 20260902123526 | 27 | 313 | 0.0 | 0.0 | 0.00 | 0.00 | 0.00 | 100 | 1017.4 |
| 20260902123029 | 27 | 313 | 0.0 | 0.0 | 0.00 | 0.00 | 0.00 | 100 | 1017.3 |
| 20260902122525 | 26 | 313 | 0.0 | 0.0 | 0.00 | 0.00 | 0.00 | 100 | 1017.3 |
| 20260902122023 | 26 | 313 | 0.0 | 3.2 | 0.00 | 0.00 | 0.00 | 100 | 1017.2 |
| 20260902121522 | 26 | 313 | 0.0 | 3.2 | 0.00 | 0.00 | 0.00 | 100 | 1017.1 |
| 20260902121023 | 26 | 315 | 0.0 | 1.6 | 0.00 | 0.00 | 0.00 | 100 | 1017.0 |
| 20260902120523 | 26 | 315 | 0.0 | 0.0 | 0.00 | 0.00 | 0.00 | 100 | 1017.0 |
| 20260902120022 | 26 | 315 | 0.0 | 0.0 | 0.00 | 0.00 | 0.00 | 100 | 1017.0 |
| 20260902115522 | 26 | 315 | 0.0 | 0.0 | 0.00 | 0.00 | 0.00 | 100 | 1017.0 |
| 20260902115022 | 26 | 315 | 0.0 | 0.0 | 0.00 | 0.00 | 0.00 | 100 | 1016.9 |
| 20260902114522 | 25 | 315 | 0.0 | 0.0 | 0.00 | 0.00 | 0.00 | 100 | 1016.9 |
| 20260902114021 | 25 | 315 | 0.0 | 0.0 | 0.00 | 0.00 | 0.00 | 100 | 1016.9 |
| 20260902113521 | 25 | 315 | 0.0 | 0.0 | 0.00 | 0.00 | 0.00 | 100 | 1016.9 |
| 20260902113022 | 25 | 315 | 0.0 | 0.0 | 0.00 | 0.00 | 0.00 | 100 | 1016.9 |